Location: Erraguntapalli
(18.7700°N, 79.7783°E)
Time: 02:30:51
(UTC+00:00)

SL-16 R/B - Pass Details

Date: 15 November 2019
Orbit: 842 x 846 km, 71.0° (Epoch: 15 December)

Event Time Altitude Azimuth Distance (km) Brightness Sun altitude
Rises 00:19:38 0° 358° (N) 3,400 5.2 -7.1°
Reaches altitude 10° 00:22:24 10° 10° (N) 2,463 4.6 -6.5°
Maximum altitude 00:27:16 29° 69° (ENE) 1,489 4.2 -5.4°
Drops below altitude 10° 00:32:07 10° 129° (SE) 2,458 6.0 -4.3°
Sets 00:34:51 0° 140° (SE) 3,391 6.5 -3.7°
